Aérodrome :
LOGIN :

S'inscrire | Disclaimer

   EN    FR    IT 

 










Légende :    VFR   VFR Marginal   IFR   IFR Intensif   IFR Très Intensif
Visi : 
Plafond : 
>= 8 km
>= 3000ft
5 à 8 km
1000 à 3000 ft
1500m à 5 km
500 à 1000 ft
800 à 1500m
200 à 500 ft
< 800m
< 200 ft
Symboles :   Orages  Brouillard  Fortes neiges  Fortes précipitations  Vent > 20 kt
SIGMETs :   Divers  Orages  Givrage  Turbulence  Onde Orograph.  Cendres Volcan.







- Altitude de l'aérodrome : 28 ft
- Code IATA : SOZ
- Voir les cartes d'approche


LFKS - Solenzara

DERNIER METAR :
  • 161900Z AUTO 27004KT CAVOK 18/17 Q1016

METARs EXPIRÉS :
  • 161830Z AUTO 28004KT CAVOK 18/17 Q1016
  • 161800Z AUTO VRB02KT CAVOK 19/17 Q1016
  • 161730Z AUTO VRB03KT CAVOK 19/17 Q1016
  • 161700Z AUTO 28003KT CAVOK 20/18 Q1016
  • 161630Z AUTO 32002KT 9999 NSC 20/18 Q1016

TAF TAF LFKS
Valide du 16 à 15h jusqu'au 17 à 15h UTC


161400Z 1615/1715 03007KT 9999 BKN050
TEMPO 1615/1618 5000 SHRA BKN030CB
Pas de NOTAMs connus pour ce terrain.



MET'MAP, la Météo Aéronautique d'un coup d'oeil ! - Copyright ORBIFLY Décembre 2007 - Disclaimer

ORBIFLY MET'MAP TEAM :

Programmation & Développement : Alexandra Zaïnal
Conception & Développement : Baudouin d'Aumeries
Co-Programmation & Développement : Marc-Olivier Méhu
Soutien technique & logistique : Manuel Goepfert

Contact : metmap@orbifly.com




SOURCES & CREDITS :

   NOAA